Regional Weather Roundup
Issued by NWS Wakefield, VA

Home | Current Version | Previous Version | Text Only | Print | Product List | Glossary Off
Versions: 1 2 3 4 5 6 7 8 9 10 11 12 13 14 15 16 17 18 19 20 21 22 23 24 25 26 27 28 29 30 31 32 33 34 35 36 37 38 39 40 41 42 43 44 45 46 47 48 49 50

000
ASUS41 KAKQ 210910
RWRAKQ

REGIONAL WEATHER ROUNDUP
NATIONAL WEATHER SERVICE WAKEFIELD VA
400 AM EST SUN DEC 21 2014

Note: "fair" indicates few or no clouds below 12,000 feet with no
significant weather and/or obstructions to visibility. * = Denotes
station may not report precipitation (e.g., rain,snow,etc.),
thunder or fog.

VAZ042-051-052>054-056-211000-
NORTHERN VIRGINIA

CITY           SKY/WX    TMP DP  RH WIND       PRES   REMARKS
WASH NATIONAL  CLOUDY    37  23  56 NE5       30.32F
DULLES         CLOUDY    32  23  69 CALM      30.30S
FORT BELVOIR   CLOUDY    32  28  84 CALM      30.32S
QUANTICO       CLOUDY    33  26  75 NW3       30.32F
FREDERICKSBRG* CLOUDY    34  28  80 CALM      30.30F
STAFFORD*      CLOUDY    32  28  84 CALM      30.34F
WARRENTON      CLOUDY    32  32  99 CALM      30.29F
CULPEPER*      CLOUDY    32  30  93 CALM      30.30F
MANASSAS*      CLOUDY    32  28  86 CALM      30.31S
LEESBURG*      CLOUDY    32  28  86 CALM      30.31S
WINCHESTER     CLOUDY    32  21  64 CALM      30.28S
FRONT ROYAL*   CLOUDY    32  25  74 CALM      30.28R
LURAY*         CLOUDY    32  28  86 CALM      30.26S
$$

VAZ048-049-060>072-079>083-211000-
CENTRAL AND SOUTH CENTRAL VIRGINIA

CITY           SKY/WX    TMP DP  RH WIND       PRES   REMARKS
RICHMOND       CLOUDY    36  26  67 CALM      30.30S
CHESTERFIELD*  CLOUDY    36  18  48 CALM      30.30F
PETERSBURG*    CLOUDY    35  32  88 CALM      30.30F
HANOVER        CLOUDY    33  27  78 CALM      30.31S
TAPPAHANNOCK*  CLOUDY    34  27  75 CALM      30.31S
QUINTON*       CLOUDY    33  29  84 CALM      30.30S
CHARLOTTSVILLE CLOUDY    32  26  78 CALM      30.27F
GORDONSVILLE*  CLOUDY    32  28  87 CALM      30.28F
ORANGE*        CLOUDY    34  30  86 CALM      30.30F
LOUISA*        CLOUDY    34  28  80 CALM      30.27S
BUMPASS*       CLOUDY    32  27  81 CALM      30.29S
FARMVILLE*     CLOUDY    36  28  73 CALM      30.27F
CREWE*         CLOUDY    34  29  84 CALM      30.28S
FORT PICKETT*  CLOUDY    34  27  75 CALM      30.28S
CHASE CITY*    CLOUDY    37  35  94 CALM      30.27F
CLARKSVILLE*   CLOUDY    36  34  93 CALM      30.26F
SOUTH HILL*    CLOUDY    33  29  85 CALM      30.34S
LAWRENCEVILLE* CLOUDY    34  29  82 CALM      30.28F
EMPORIA*       CLOUDY    32  32 100 CALM      30.31F
$$

VAZ088>098-211000-
SOUTHEAST VIRGINIA

CITY           SKY/WX    TMP DP  RH WIND       PRES   REMARKS
NORFOLK        CLEAR     29  26  89 CALM      30.29S
VIRGINIA BEACH PTCLDY    29  26  89 CALM      30.28F
NORFOLK NAVAL  MOCLDY    39  27  62 N8        30.30F
WEST POINT*    CLOUDY    36  28  73 CALM      30.32F
SALUDA*        CLOUDY    35  25  67 N3        30.30S
NEWPORT NEWS   CLOUDY    31  26  82 CALM      30.30S
LANGLEY AFB    MOCLDY    28  26  91 NW5       30.31S
FORT EUSTIS    CLOUDY    32  29  91 NE1       30.29S
WILLIAMSBURG*  CLOUDY    37  32  81 CALM      30.31S
HR EXEC AP*    CLOUDY    27  25  93 CALM      30.31F
FRANKLIN*      CLOUDY    30  30 100 CALM      30.30S
WAKEFIELD      CLOUDY    32  28  85 CALM      30.29F
$$

VAZ020-022-025-037-045-211000-
WEST CENTRAL AND SOUTHWEST VIRGINIA

CITY           SKY/WX    TMP DP  RH WIND       PRES   REMARKS
STAUNTON*      CLOUDY    32  27  80 CALM      30.26S
WAYNESBORO*    CLOUDY    31  26  82 CALM      30.23S
HOT SPRINGS VA CLOUDY    29  29 100 W7        30.11F
LYNCHBURG      CLOUDY    33  29  85 CALM      30.26F
DANVILLE       CLOUDY    37  32  82 CALM      30.26F
SOUTH BOSTON*  CLOUDY    36  33  88 CALM      30.27F
MARTINSVILLE   CLOUDY    37  34  89 CALM      30.26F
ROANOKE        CLOUDY    35  27  72 CALM      30.25F
BLACKSBURG     CLOUDY    34  31  89 CALM      30.23R
DUBLIN*        CLOUDY    37  36  97 CALM      30.21S
MARION*        CLOUDY    37  36  94 W3        30.21S FOG
HILLSVILLE*    CLOUDY    33  31  91 CALM      30.18S
RICHLANDS*     CLOUDY    32  31  95 CALM      30.19S FOG
WISE*          CLEAR     30  30 100 N3        30.20S FOG
ABINGDON*      CLOUDY    38  37  96 CALM      30.20S FOG
$$

MDZ021>025-VAZ099-100-211000-
SOUTHERN MARYLAND AND THE DELMARVA PENINSULA

CITY           SKY/WX    TMP DP  RH WIND       PRES   REMARKS
PATUXENT RIVER CLOUDY    33  26  75 W5        30.30S
BAY BRIDGE APT   N/A     32  28  86 CALM      30.31F
LEONARDTOWN    CLOUDY    32  25  74 CALM      30.32S
DOVER          NOT AVBL
GEORGETOWN     CLOUDY    28  25  88 CALM      30.30F
EASTON         MOCLDY    32  32 100 CALM      30.34S
CAMBRIDGE      CLOUDY    32  28  86 CALM      30.30S
SALISBURY      CLOUDY    31  26  82 CALM      30.30S
OCEAN CITY     CLOUDY    31  27  85 CALM      30.30S
WALLOPS ISLAND CLOUDY    31  26  82 N3        30.31R
ACCOMACK*      CLOUDY    32  27  80 NE5       30.30S
$$

NCZ012>017-030>032-211000-
NORTH CENTRAL AND EASTERN NORTH CAROLINA

CITY           SKY/WX    TMP DP  RH WIND       PRES   REMARKS
ROANOKE RAPIDS CLOUDY    30  28  93 CALM      30.28F
RALEIGH        CLOUDY    38  34  85 NE3       30.27F FOG
ELIZABETH CITY CLEAR     37  30  75 N5        30.29S
AHOSKIE*       CLOUDY    29  28  94 CALM      30.29F
EDENTON*         N/A     32  29  91 N5        30.28F
CURRITUCK*     CLEAR     32  29  90 CALM      30.29F
KILL DEVIL HLS CLEAR     40  34  78 N5        30.25F
MANTEO         CLEAR     39  34  84 N3        30.27S
CAPE HATTERAS  CLEAR     43  37  79 NE8G16    30.24F
TARBORO*       CLOUDY    34  32  93 CALM      30.29F
GOLDSBORO      CLEAR     33  33  98 CALM      30.25F
WASHINGTON     CLEAR     32  31  93 NE5       30.27F
GREENVILLE     CLEAR     32  30  93 CALM      30.28F
NEW BERN       CLEAR     37  32  82 NE5       30.27F
WILMINGTON     CLOUDY    38  35  89 N8        30.23S
$$

VAZ048-211000-
ELSEWHERE

CITY           SKY/WX    TMP DP  RH WIND       PRES   REMARKS
HARRISBURG PA  CLOUDY    28  22  78 CALM      30.30R
BALTIMORE      CLOUDY    31  25  78 CALM      30.30F
ANNAPOLIS      CLOUDY    35  27  72 N3        30.30F
ANDREWS AFB    CLOUDY    32  26  78 CALM      30.29F
PHILADELPHIA   CLOUDY    33  23  66 CALM      30.31S
HENDERSON NC   CLOUDY    33  32  95 CALM      30.27F FOG
GREENSBORO     CLOUDY    39  35  86 CALM      30.23F FOG
ROCKY MOUNT    CLEAR     33  31  92 NE3       30.28F
$$

VAZ100-211000-
MARINE

STATION/POSITION TIME  TEMP    WIND        PRES    WAVE   SWELL
                       AIR SEA DIR/SP/G            HT/PER HT/PER
                 (UTC) (F)     (DEG/KT/KT) (MB)    (FT/S) (FT/S)
CAPE MAY NJ      0900   30 42   CALM  /  1 1025.7F
LEWES DE         0900   31 42  290/  3/  4 1025.9F
15NM E FENWICK I 0900   36 45              1025.5F   1/10
OCEAN-CITY-INLET 0900   33 41  340/  5/  6 1025.6S
WACHAPREAGUE VA  0900   31 39  330/  1/  2 1026.1R
THOMAS POINT MD  0900   35 41   20/  3/  3 1027.2F
GOOSES REEF MD   0900   36     VRB  6/  6  1025.2S
COVE POINT MD    0900   33     310/  4/  5 1025.9S
SOLOMONS ISLAND  0900      42                N/A
BISHOPS HEAD MD  0900   34 37   10/  3/  4 1025.5F
POTOMAC MD       0900   36      10/  6/  8 1025.3S
CAMBRIDGE MD     0900   33 40   80/  2/  3 1025.9F
LEWISETTA VA     0900   35 40  300/  3/  3 1025.9F
RAPPAHANNOCK LGT 0900           40/  6/  7 1026.4S
STINGRAY PT      0900   37      10/  8/  8 1026.4S
YORK RVR RNG VA  0900   38      10/  6/  7 1025.5S
YORKTOWN VA      0900   36 45  350/  4/  4 1025.9F
JAMESTOWN VA     0900   35      60/  4/  4   N/A
DOMINION TERM VA 0900   36      CALM  /  1 1026.0R
KIPTOPEKE VA     0900      48   50/  5/  6   N/A
CHES BAY BRIDGE  0900   38 45   10/  7/  8 1025.3R
CAPE HENRY VA    0900   38     360/  9/ 11 1024.4S
CHESAPEAKE LGHT  0800   39     360/ 10/ 11 1026.3R
WILLOUBY STN VA  0900   38     360/  6/  7 1026.2R
S CRANEY ISL VA  0900           10/  7/  8 1025.6F
CAPE HENRY BUOY  0900      49                N/A     2/10
1ST LANDING BUOY 0900   39      20/  8/ 10 1025.3R
CAPE CHARLES BUO 0900      47                N/A     1/10   2/10
64NM E OF VA BCH 0900   43 54  350/ 12/ 14 1024.3F   2/10   2/10
DUCK PIER NC     0900   42 46   10/ 10/ 13 1024.1S
44100 DUCK FRF   0900      51                N/A     2/ 5
44056 DUCK FRF   0900      46                N/A     2/ 5
OREGON INLET NC  0900   42 49  350/  7/ 10 1024.7F
HATTERAS NC      0900   45 49   10/ 16/ 17 1024.2F
DIAMOND SHLS NC  0900   49                 1023.7F   3/ 5
CAPE LOOKOUT NC  0800   43      20/ 13/ 16 1023.5F
$$


USA.gov is the U.S. government's official web portal to all federal, state and local government web resources and services.